Location: The Jewett Observatory
(46.7288°N, 117.1525°W)
Time: 14:37:07
(UTC-07:00)

Amateur Radio Satellites - All Passes

Search period start: 23 April 2017 14:07
Search period end: 24 April 2017 14:07
Location: The Jewett Observatory, 46.7288°N, 117.1525°W

Satellite Date Start Highest point End Downlink Frequencies (MHz)
Time Altitude Azimuth
50 SAT 23 Apr 14:07:32 14:10:49 38° 289° (WNW) 14:14:05 437.505
UKube-1 23 Apr 14:11:03 14:15:25 79° 105° (ESE) 14:19:43 .
AO-85 23 Apr 14:11:27 14:15:42 87° 311° (NW) 14:19:44 145.980
AO-7 23 Apr 14:13:06 14:20:46 44° 58° (ENE) 14:28:27 .
Oscar 19 23 Apr 14:23:50 14:28:12 28° 266° (W) 14:32:37 437.125/150
YUBILEINY 23 Apr 14:34:28 14:41:50 29° 63° (ENE) 14:49:09 435.215
DX 1 23 Apr 14:36:43 14:40:50 41° 291° (WNW) 14:44:56 434.975-435.025
ISS 23 Apr 14:43:11 14:46:23 52° 18° (NNE) 14:49:34 437.550
Tancredo 1 23 Apr 14:48:37 14:51:43 62° 22° (NNE) 14:54:48 437.200
RS-15 23 Apr 14:57:30 15:09:14 45° 29° (NNE) 15:20:34 29.354- 29.394
SPROUT 23 Apr 15:05:44 15:06:41 11° 303° (WNW) 15:07:37 437.525
BEESAT 2 23 Apr 15:07:40 15:11:02 27° 116° (ESE) 15:14:28 435.950
VELOX 1 23 Apr 15:12:15 15:12:41 10° 305° (NW) 15:13:07 145.980
BEESAT 3 23 Apr 15:16:20 15:20:17 82° 125° (SE) 15:24:18 437.485
BEESAT 23 Apr 15:16:39 15:20:59 33° 97° (E) 15:25:17 436.000
SO-50 23 Apr 15:19:36 15:23:56 44° 46° (NE) 15:28:14 436.795
Gurwin Techsat 1B 23 Apr 15:39:24 15:40:57 11° 274° (W) 15:42:31 435.225
ITAMSAT 1 23 Apr 15:40:45 15:45:49 53° 259° (W) 15:50:55 435.822/435.867
MOZHAYETS 4 23 Apr 15:42:00 15:46:04 30° 95° (E) 15:50:07
UKube-1 23 Apr 15:48:47 15:50:50 13° 302° (WNW) 15:52:53 .
AO-85 23 Apr 15:54:05 15:56:39 16° 326° (NNW) 15:59:10 145.980
ITUPSAT 1 23 Apr 15:54:32 15:59:20 75° 104° (ESE) 16:04:06 437.325
AO-7 23 Apr 16:05:27 16:13:26 51° 259° (WSW) 16:21:29 .
ISS 23 Apr 16:19:48 16:22:47 34° 217° (SW) 16:25:46 437.550
KKS-1 23 Apr 16:21:25 16:23:50 14° 90° (E) 16:26:13 437.445
CUBESAT XI-V 23 Apr 16:24:10 16:27:06 16° 89° (E) 16:30:01 437.345
Tancredo 1 23 Apr 16:24:53 16:27:27 24° 220° (SW) 16:30:01 437.200
CUTE-I 23 Apr 16:26:00 16:28:28 13° 54° (NE) 16:30:56 437.470
YUBILEINY 23 Apr 16:30:47 16:39:30 74° 266° (W) 16:48:15 435.215
BEESAT 2 23 Apr 16:44:58 16:48:41 36° 315° (NW) 16:52:28 435.950
XW-2D 23 Apr 16:48:11 16:49:50 13° 62° (ENE) 16:51:29 145.860 - 145.880
DOVE 4 23 Apr 16:51:07 16:55:40 30° 65° (ENE) 17:00:10 437.250
BEESAT 23 Apr 16:54:30 16:58:42 31° 295° (WNW) 17:02:53 436.000
XW-2B 23 Apr 16:54:35 16:56:37 14° 63° (ENE) 16:58:40 145.730 - 145.750
BEESAT 3 23 Apr 16:55:40 16:58:24 17° 325° (NW) 17:01:08 437.485
SO-50 23 Apr 17:00:24 17:04:13 27° 244° (WSW) 17:08:00 436.795
LilacSat-2 23 Apr 17:00:51 17:03:22 17° 64° (ENE) 17:05:55 437.200
STARS 23 Apr 17:02:49 17:05:39 17° 91° (E) 17:08:28 437.465
XW-2C 23 Apr 17:05:37 17:08:15 19° 65° (ENE) 17:10:55 145.795 - 145.815
HO-68 23 Apr 17:08:48 17:12:42 16° 46° (NE) 17:16:35 435.675
RS-15 23 Apr 17:10:44 17:23:04 81° 238° (WSW) 17:34:48 29.354- 29.394
KAITUO 1B 23 Apr 17:12:07 17:14:37 17° 65° (ENE) 17:17:07 145.475/437.950
MOZHAYETS 4 23 Apr 17:19:07 17:23:13 32° 293° (WNW) 17:27:18
XW-2F 23 Apr 17:32:54 17:36:16 34° 70° (ENE) 17:39:42 145.980 - 146.000
ITUPSAT 1 23 Apr 17:33:43 17:36:36 16° 302° (WNW) 17:39:28 437.325
NUDT-PHONESAT 23 Apr 17:54:52 17:58:25 50° 73° (ENE) 18:01:59 437.300
KKS-1 23 Apr 17:56:25 18:00:51 66° 288° (WNW) 18:05:14 437.445
CUBESAT XI-V 23 Apr 18:00:13 18:04:54 64° 287° (WNW) 18:09:34 437.345
CUTE-I 23 Apr 18:02:18 18:07:38 76° 73° (ENE) 18:13:00 437.470
CUTE 1.7 + AOD 2 23 Apr 18:06:12 18:08:33 15° 61° (ENE) 18:10:55 437.475
XW-2D 23 Apr 18:19:51 18:23:33 61° 258° (WSW) 18:27:17 145.860 - 145.880
XW-2B 23 Apr 18:26:45 18:30:25 52° 260° (W) 18:34:06 145.730 - 145.750
DOVE 4 23 Apr 18:28:06 18:33:08 44° 263° (W) 18:38:10 437.250
YUBILEINY 23 Apr 18:29:56 18:34:41 16° 287° (WNW) 18:39:28 435.215
SEEDS 23 Apr 18:32:19 18:35:08 18° 63° (ENE) 18:37:58 437.485
LilacSat-2 23 Apr 18:33:49 18:37:22 40° 262° (W) 18:40:58 437.200
CUBEBUG 2 23 Apr 18:35:43 18:38:11 15° 61° (ENE) 18:40:37 437.445
STARS 23 Apr 18:38:03 18:42:20 54° 289° (WNW) 18:46:34 437.465
XW-2C 23 Apr 18:38:44 18:42:13 37° 263° (W) 18:45:44 145.795 - 145.815
KAITUO 1B 23 Apr 18:44:54 18:48:21 38° 262° (W) 18:51:51 145.475/437.950
STRAND 1 23 Apr 18:51:23 18:53:07 12° 87° (E) 18:54:51 437.568
HO-68 23 Apr 18:52:04 18:59:04 63° 67° (ENE) 19:06:08 435.675
XW-2A 23 Apr 18:59:05 19:02:18 45° 73° (ENE) 19:05:33 145.665 - 145.685
XW-2F 23 Apr 19:07:50 19:10:32 19° 267° (W) 19:13:15 145.980 - 146.000
M-CUBED/EXP-1 PRIME 23 Apr 19:17:22 19:19:24 13° 93° (E) 19:21:23 437.505
RS-15 23 Apr 19:24:54 19:33:34 24° 261° (W) 19:42:00 29.354- 29.394
NUDT-PHONESAT 23 Apr 19:30:58 19:32:39 13° 270° (W) 19:34:20 437.300
ZACube-1 23 Apr 19:32:24 19:35:26 20° 64° (ENE) 19:38:27 437.345
CUTE 1.7 + AOD 2 23 Apr 19:39:42 19:43:53 65° 259° (W) 19:48:07 437.475
AO-73 23 Apr 19:41:08 19:44:19 22° 65° (ENE) 19:47:30 145.935
CUTE-I 23 Apr 19:44:58 19:48:16 16° 271° (W) 19:51:35 437.470
AAUSAT CUBESAT 2 23 Apr 19:49:02 19:53:03 52° 72° (ENE) 19:57:07 437.432
O/OREOS (USA 219) 23 Apr 19:57:33 20:01:42 32° 55° (NE) 20:05:49 437.305
Oscar 11 23 Apr 20:00:16 20:03:59 29° 67° (ENE) 20:07:43 .
UWE-3 23 Apr 20:04:00 20:08:16 67° 74° (ENE) 20:12:27 435.000/436.395/437.385
SEEDS 23 Apr 20:06:23 20:10:27 51° 261° (W) 20:14:34 437.485
CUBEBUG 2 23 Apr 20:09:57 20:14:20 66° 258° (WSW) 20:18:37 437.445
NO-84 23 Apr 20:14:44 20:17:09 17° 132° (SE) 20:19:27 435.350 FM
STRAND 1 23 Apr 20:27:56 20:33:04 85° 104° (ESE) 20:38:10 437.568
XW-2A 23 Apr 20:34:02 20:35:20 12° 270° (W) 20:36:37 145.665 - 145.685
HO-68 23 Apr 20:41:13 20:47:15 29° 267° (W) 20:53:20 435.675
M-CUBED/EXP-1 PRIME 23 Apr 20:50:01 20:54:23 68° 293° (WNW) 20:58:24 437.505
AO-85 23 Apr 20:59:54 21:03:14 25° 41° (NE) 21:06:36 145.980
OBJECT BX 23 Apr 21:00:23 21:03:25 25° 68° (ENE) 21:06:28 145.990 - 145.960
DELFI C3 23 Apr 21:03:32 21:07:13 38° 70° (ENE) 21:10:57 145.870
ZACube-1 23 Apr 21:07:25 21:11:27 44° 261° (W) 21:15:27 437.345
AO-73 23 Apr 21:16:25 21:20:21 39° 262° (W) 21:24:16 145.935
AAUSAT CUBESAT 2 23 Apr 21:26:17 21:28:49 16° 270° (W) 21:31:23 437.432
Oscar 11 23 Apr 21:36:17 21:40:04 30° 265° (W) 21:43:53 .
O/OREOS (USA 219) 23 Apr 21:37:00 21:41:05 32° 255° (WSW) 21:45:07 437.305
PRISM 23 Apr 21:42:38 21:45:38 19° 92° (E) 21:48:35 437.425
UWE-3 23 Apr 21:43:15 21:45:10 13° 271° (W) 21:47:04 435.000/436.395/437.385
BEESAT 2 23 Apr 21:46:03 21:47:13 11° 26° (NNE) 21:48:21 435.950
NO-84 23 Apr 21:50:58 21:54:26 70° 328° (NNW) 21:57:36 435.350 FM
BEESAT 3 23 Apr 21:53:37 21:56:37 20° 37° (NE) 21:59:36 437.485
FO-29 23 Apr 22:01:32 22:04:50 17° 90° (E) 22:08:10 435.910
STRAND 1 23 Apr 22:08:37 22:11:34 16° 303° (WNW) 22:14:31 437.568
LO-87 23 Apr 22:15:02 22:18:09 27° 68° (ENE) 22:21:16 145.935 - 145.965
M-CUBED/EXP-1 PRIME 23 Apr 22:27:14 22:27:54 10° 312° (NW) 22:28:34 437.505
ESTCUBE 1 23 Apr 22:29:18 22:33:06 27° 65° (ENE) 22:36:55 437.505/2401.250
TIGRISAT 23 Apr 22:30:07 22:34:02 34° 97° (E) 22:37:57 435.000
OBJECT BX 23 Apr 22:34:03 22:37:04 24° 265° (W) 22:40:06 145.990 - 145.960
DELFI C3 23 Apr 22:39:13 22:42:09 20° 268° (W) 22:45:07 145.870
AO-85 23 Apr 22:39:59 22:43:44 42° 240° (WSW) 22:47:38 145.980
SPROUT 23 Apr 22:49:56 22:51:49 13° 59° (ENE) 22:53:43 437.525
UNISAT 6 23 Apr 22:50:09 22:54:24 61° 101° (E) 22:58:39 437.425
VELOX 1 23 Apr 22:57:40 23:00:37 18° 61° (ENE) 23:03:34 145.980
50 SAT 23 Apr 23:13:03 23:13:32 10° 60° (ENE) 23:14:00 437.505
PRISM 23 Apr 23:17:09 23:21:07 43° 290° (WNW) 23:25:02 437.425
BEESAT 2 23 Apr 23:22:05 23:26:00 44° 47° (NE) 23:29:53 435.950
NO-84 23 Apr 23:29:48 23:32:21 21° 346° (NNW) 23:34:46 435.350 FM
BEESAT 3 23 Apr 23:30:36 23:34:37 68° 236° (WSW) 23:38:35 437.485
UKube-1 23 Apr 23:35:02 23:36:48 12° 57° (ENE) 23:38:34 .
POLYITAN 1 23 Apr 23:42:02 23:44:54 18° 92° (E) 23:47:45 437.675
FO-29 23 Apr 23:45:20 23:50:29 67° 288° (WNW) 23:55:47 435.910
QB50P2 23 Apr 23:48:08 23:51:26 22° 93° (E) 23:54:43 145.880/145.840
LO-87 23 Apr 23:48:38 23:51:35 23° 266° (W) 23:54:32 145.935 - 145.965
DX 1 23 Apr 23:59:04 00:02:47 28° 65° (ENE) 00:06:32 434.975-435.025
ESTCUBE 1 24 Apr 00:05:39 00:09:47 35° 263° (W) 00:13:56 437.505/2401.250
TIGRISAT 24 Apr 00:07:06 00:10:36 25° 294° (WNW) 00:14:06 435.000
AIST 2D 24 Apr 00:08:39 00:12:09 64° 101° (E) 00:15:39 435.315
NANOSAT C BR1 24 Apr 00:12:58 00:16:46 33° 97° (E) 00:20:33 145.865
SPROUT 24 Apr 00:22:50 00:27:08 80° 258° (WSW) 00:31:26 437.525
BUGSAT 1 24 Apr 00:25:15 00:27:12 13° 90° (E) 00:29:08 437.445
UNISAT 6 24 Apr 00:28:07 00:30:40 16° 299° (WNW) 00:33:14 437.425
VELOX 1 24 Apr 00:32:13 00:36:37 60° 258° (WSW) 00:41:04 145.980
EO-79 24 Apr 00:38:28 00:42:40 68° 102° (ESE) 00:46:50 145.935-145.965
50 SAT 24 Apr 00:42:29 00:45:56 68° 258° (WSW) 00:49:27 437.505
DUCHIFAT 1 24 Apr 00:44:18 00:48:28 65° 102° (ESE) 00:52:36 145.980
Oscar 19 24 Apr 00:54:34 00:56:24 12° 86° (E) 00:58:13 437.125/150
BEESAT 2 24 Apr 01:00:19 01:03:32 23° 246° (WSW) 01:06:43 435.950
UKube-1 24 Apr 01:07:50 01:12:10 86° 251° (WSW) 01:16:33 .
NO-84 24 Apr 01:08:26 01:10:40 18° 8° (N) 01:12:50 435.350 FM
POLYITAN 1 24 Apr 01:16:54 01:20:57 47° 289° (WNW) 01:24:58 437.675
QB50P2 24 Apr 01:23:27 01:27:21 38° 291° (WNW) 01:31:14 145.880/145.840
ITUPSAT 1 24 Apr 01:28:20 01:31:23 17° 59° (ENE) 01:34:26 437.325
FO-29 24 Apr 01:33:42 01:34:39 10° 308° (NW) 01:35:36 435.910
DX 1 24 Apr 01:34:54 01:38:52 33° 263° (W) 01:42:53 434.975-435.025
AIST 2D 24 Apr 01:44:04 01:44:52 11° 298° (WNW) 01:45:41 435.315
NANOSAT C BR1 24 Apr 01:48:54 01:52:22 25° 294° (WNW) 01:55:48 145.865
BUGSAT 1 24 Apr 01:59:00 02:02:57 58° 288° (WNW) 02:06:53 437.445
Gurwin Techsat 1B 24 Apr 02:08:22 02:13:09 33° 96° (E) 02:17:53 435.225
EO-79 24 Apr 02:15:42 02:17:55 14° 300° (WNW) 02:20:06 145.935-145.965
DUCHIFAT 1 24 Apr 02:21:22 02:23:39 14° 299° (WNW) 02:25:55 145.980
BEESAT 24 Apr 02:25:30 02:30:08 54° 70° (ENE) 02:34:46 436.000
Oscar 19 24 Apr 02:31:16 02:36:30 84° 103° (ESE) 02:41:43 437.125/150
NO-84 24 Apr 02:45:49 02:48:42 52° 30° (NNE) 02:51:30 435.350 FM
MOZHAYETS 4 24 Apr 02:46:24 02:50:38 40° 69° (ENE) 02:54:53
PCSat 24 Apr 02:59:24 03:04:34 46° 115° (ESE) 03:09:44 145.827
ITUPSAT 1 24 Apr 03:03:56 03:08:41 69° 257° (WSW) 03:13:27 437.325
KKS-1 24 Apr 03:21:48 03:25:06 20° 62° (ENE) 03:28:22 437.445
CUBESAT XI-V 24 Apr 03:29:59 03:33:33 22° 63° (ENE) 03:37:09 437.345
YUBILEINY 24 Apr 03:40:25 03:47:22 28° 80° (E) 03:54:20 435.215
Gurwin Techsat 1B 24 Apr 03:48:15 03:53:08 38° 294° (WNW) 03:58:00 435.225
ITAMSAT 1 24 Apr 03:50:32 03:55:28 43° 99° (E) 04:00:22 435.822/435.867
STARS 24 Apr 04:01:50 04:05:17 23° 63° (ENE) 04:08:43 437.465
AO-7 24 Apr 04:03:15 04:11:14 48° 100° (E) 04:19:11 .
BEESAT 24 Apr 04:04:50 04:08:14 19° 268° (W) 04:11:39 436.000
Oscar 19 24 Apr 04:11:59 04:15:10 17° 303° (WNW) 04:18:19 437.125/150
NO-84 24 Apr 04:23:59 04:25:55 17° 228° (SW) 04:27:50 435.350 FM
MOZHAYETS 4 24 Apr 04:24:14 04:27:56 24° 267° (W) 04:31:39
PCSat 24 Apr 04:43:11 04:48:07 34° 315° (NW) 04:53:05 145.827
KKS-1 24 Apr 04:56:57 05:01:19 50° 260° (W) 05:05:41 437.445
CUBESAT XI-V 24 Apr 05:06:09 05:10:38 47° 261° (W) 05:15:10 437.345
ITAMSAT 1 24 Apr 05:30:21 05:34:45 29° 297° (WNW) 05:39:08 435.822/435.867
YUBILEINY 24 Apr 05:34:43 05:43:23 71° 282° (WNW) 05:52:07 435.215
RS-15 24 Apr 05:36:17 05:38:27 11° 89° (E) 05:40:39 29.354- 29.394
STARS 24 Apr 05:37:11 05:41:22 42° 261° (W) 05:45:36 437.465
XW-2D 24 Apr 05:51:20 05:52:40 11° 89° (E) 05:54:00 145.860 - 145.880
AO-7 24 Apr 05:56:12 06:04:00 47° 301° (WNW) 06:11:47 .
XW-2B 24 Apr 05:57:42 05:59:36 13° 90° (E) 06:01:28 145.730 - 145.750
M-CUBED/EXP-1 PRIME 24 Apr 06:03:50 06:07:51 30° 60° (ENE) 06:11:56 437.505
LilacSat-2 24 Apr 06:04:42 06:07:15 17° 92° (E) 06:09:49 437.200
XW-2C 24 Apr 06:08:49 06:11:29 18° 92° (E) 06:14:08 145.795 - 145.815
STRAND 1 24 Apr 06:08:54 06:12:57 24° 62° (ENE) 06:17:01 437.568
KAITUO 1B 24 Apr 06:13:51 06:16:16 16° 92° (E) 06:18:41 145.475/437.950
CUTE-I 24 Apr 06:17:02 06:21:16 24° 93° (E) 06:25:28 437.470
DOVE 4 24 Apr 06:24:23 06:28:58 44° 97° (E) 06:33:14 437.250
PCSat 24 Apr 06:31:23 06:33:14 12° 339° (NNW) 06:35:05 145.827
XW-2F 24 Apr 06:35:55 06:39:24 34° 97° (E) 06:42:52 145.980 - 146.000
NUDT-PHONESAT 24 Apr 06:56:08 06:59:44 47° 99° (E) 07:03:20 437.300
SO-50 24 Apr 07:16:20 07:20:45 46° 120° (ESE) 07:25:08 436.795
CUTE 1.7 + AOD 2 24 Apr 07:22:25 07:25:23 18° 91° (E) 07:28:21 437.475
XW-2D 24 Apr 07:23:29 07:27:15 61° 286° (WNW) 07:31:01 145.860 - 145.880
XW-2B 24 Apr 07:30:23 07:34:06 52° 287° (WNW) 07:37:48 145.730 - 145.750
RS-15 24 Apr 07:36:14 07:47:39 52° 112° (ESE) 07:59:21 29.354- 29.394
YUBILEINY 24 Apr 07:36:37 07:42:02 18° 306° (NW) 07:47:30 435.215
M-CUBED/EXP-1 PRIME 24 Apr 07:37:51 07:42:08 38° 258° (WSW) 07:46:30 437.505
LilacSat-2 24 Apr 07:38:07 07:41:43 41° 289° (WNW) 07:45:20 437.200
XW-2C 24 Apr 07:42:18 07:45:50 38° 289° (WNW) 07:49:23 145.795 - 145.815
STRAND 1 24 Apr 07:46:51 07:51:49 51° 260° (W) 07:56:49 437.568
KAITUO 1B 24 Apr 07:46:55 07:50:28 41° 289° (WNW) 07:54:03 145.475/437.950
SEEDS 24 Apr 07:47:37 07:50:56 22° 93° (E) 07:54:14 437.485
XW-2A 24 Apr 07:50:48 07:53:50 31° 97° (E) 07:56:52 145.665 - 145.685
AO-7 24 Apr 07:51:01 07:54:45 14° 324° (NW) 07:58:29 .
UWE-3 24 Apr 07:53:20 07:53:53 10° 87° (E) 07:54:26 435.000/436.395/437.385
CUTE-I 24 Apr 07:56:27 08:01:36 52° 291° (WNW) 08:06:44 437.470
CUBEBUG 2 24 Apr 07:58:23 08:01:25 19° 92° (E) 08:04:27 437.445
DOVE 4 24 Apr 08:02:36 08:06:22 23° 297° (WNW) 08:09:56 437.250
HO-68 24 Apr 08:04:02 08:11:01 50° 100° (E) 08:17:57 435.675
XW-2F 24 Apr 08:10:30 08:13:21 21° 294° (WNW) 08:16:13 145.980 - 146.000
FO-29 24 Apr 08:18:56 08:21:38 13° 55° (NE) 08:24:16 435.910
NUDT-PHONESAT 24 Apr 08:31:07 08:33:18 15° 296° (WNW) 08:35:28 437.300
PRISM 24 Apr 08:34:33 08:37:41 21° 64° (ENE) 08:40:49 437.425
ZACube-1 24 Apr 08:52:37 08:56:10 26° 95° (E) 08:59:46 437.345
SO-50 24 Apr 08:57:19 09:01:23 30° 320° (NW) 09:05:25 436.795
CUTE 1.7 + AOD 2 24 Apr 08:57:20 09:01:28 48° 289° (WNW) 09:05:36 437.475
AO-73 24 Apr 09:01:05 09:04:45 29° 95° (E) 09:08:28 145.935
Tancredo 1 24 Apr 09:01:05 09:03:14 17° 137° (SE) 09:05:24 437.200
ISS 24 Apr 09:02:19 09:04:18 15° 136° (SE) 09:06:17 437.550
AAUSAT CUBESAT 2 24 Apr 09:03:21 09:07:33 67° 102° (ESE) 09:11:43 437.432
Oscar 11 24 Apr 09:19:54 09:23:59 39° 97° (E) 09:28:04 .
SEEDS 24 Apr 09:22:48 09:26:46 39° 290° (WNW) 09:30:44 437.485
XW-2A 24 Apr 09:24:08 09:26:23 17° 294° (WNW) 09:28:38 145.665 - 145.685
UWE-3 24 Apr 09:26:43 09:30:54 80° 285° (WNW) 09:35:07 435.000/436.395/437.385
TIGRISAT 24 Apr 09:31:15 09:35:24 43° 71° (ENE) 09:39:31 435.000
CUBEBUG 2 24 Apr 09:34:20 09:38:15 41° 290° (WNW) 09:42:10 437.445
RS-15 24 Apr 09:48:02 10:00:05 62° 318° (NW) 10:12:23 29.354- 29.394
UNISAT 6 24 Apr 09:51:23 09:55:46 75° 76° (ENE) 10:00:07 437.425
HO-68 24 Apr 09:52:03 09:58:34 39° 300° (WNW) 10:05:04 435.675
FO-29 24 Apr 09:59:37 10:05:58 72° 73° (ENE) 10:11:37 435.910
OBJECT BX 24 Apr 09:59:43 10:02:38 22° 94° (E) 10:05:33 145.990 - 145.960
PCSat 24 Apr 10:01:34 10:05:15 18° 32° (NNE) 10:08:56 145.827
PRISM 24 Apr 10:08:46 10:12:42 41° 261° (W) 10:16:41 437.425
DELFI C3 24 Apr 10:12:06 10:15:57 42° 98° (E) 10:19:45 145.870
O/OREOS (USA 219) 24 Apr 10:13:35 10:16:56 20° 101° (ESE) 10:20:19 437.305
ZACube-1 24 Apr 10:28:47 10:32:29 31° 292° (WNW) 10:36:13 437.345
Tancredo 1 24 Apr 10:35:44 10:38:50 80° 334° (NNW) 10:41:57 437.200
ISS 24 Apr 10:37:06 10:40:22 87° 152° (SSE) 10:43:38 437.550
POLYITAN 1 24 Apr 10:37:18 10:40:24 20° 64° (ENE) 10:43:30 437.675
AO-73 24 Apr 10:37:22 10:40:57 28° 293° (WNW) 10:44:35 145.935
AAUSAT CUBESAT 2 24 Apr 10:40:14 10:42:29 14° 299° (WNW) 10:44:44 437.432
SO-50 24 Apr 10:42:36 10:43:18 10° 343° (NNW) 10:44:00 436.795
QB50P2 24 Apr 10:43:21 10:46:47 25° 65° (ENE) 10:50:13 145.880/145.840
AIST 2D 24 Apr 10:45:43 10:48:53 34° 71° (ENE) 10:52:04 435.315
Oscar 11 24 Apr 10:56:28 10:59:55 23° 295° (WNW) 11:03:21 .
NANOSAT C BR1 24 Apr 11:07:30 11:11:20 36° 69° (ENE) 11:15:11 145.865
TIGRISAT 24 Apr 11:09:01 11:12:18 20° 267° (W) 11:15:32 435.000
LO-87 24 Apr 11:12:30 11:15:21 22° 94° (E) 11:18:10 145.935 - 145.965
BUGSAT 1 24 Apr 11:17:36 11:20:02 15° 61° (ENE) 11:22:29 437.445
UNISAT 6 24 Apr 11:31:20 11:33:00 12° 272° (W) 11:34:39 437.425
EO-79 24 Apr 11:33:08 11:37:21 72° 75° (ENE) 11:41:35 145.935-145.965
OBJECT BX 24 Apr 11:33:10 11:36:20 28° 291° (WNW) 11:39:30 145.990 - 145.960
DUCHIFAT 1 24 Apr 11:38:22 11:42:32 68° 74° (ENE) 11:46:44 145.980
PCSat 24 Apr 11:44:12 11:49:40 70° 55° (NE) 11:55:04 145.827
FO-29 24 Apr 11:47:02 11:51:29 20° 268° (W) 11:55:36 435.910
DELFI C3 24 Apr 11:47:34 11:50:27 19° 296° (WNW) 11:53:19 145.870
O/OREOS (USA 219) 24 Apr 11:51:32 11:55:59 50° 300° (WNW) 12:00:30 437.305
ESTCUBE 1 24 Apr 11:54:43 11:59:00 38° 97° (E) 12:03:14 437.505/2401.250
Gurwin Techsat 1B 24 Apr 11:56:26 11:58:23 12° 53° (NE) 12:00:20 435.225
RS-15 24 Apr 12:04:46 12:15:44 35° 349° (N) 12:26:39 29.354- 29.394
SPROUT 24 Apr 12:07:02 12:09:19 14° 90° (E) 12:11:36 437.525
POLYITAN 1 24 Apr 12:11:52 12:15:54 44° 261° (W) 12:19:57 437.675
Tancredo 1 24 Apr 12:12:12 12:15:03 32° 354° (N) 12:17:55 437.200
Oscar 19 24 Apr 12:13:03 12:17:10 25° 62° (ENE) 12:21:19 437.125/150
ISS 24 Apr 12:14:03 12:17:06 35° 353° (N) 12:20:08 437.550
QB50P2 24 Apr 12:18:33 12:22:25 35° 263° (W) 12:26:19 145.880/145.840
VELOX 1 24 Apr 12:19:56 12:23:18 21° 93° (E) 12:26:38 145.980
AIST 2D 24 Apr 12:19:59 12:22:14 16° 268° (W) 12:24:30 435.315
NANOSAT C BR1 24 Apr 12:43:45 12:47:08 23° 266° (W) 12:50:33 145.865
LO-87 24 Apr 12:45:43 12:48:47 27° 292° (WNW) 12:51:50 145.935 - 145.965
BUGSAT 1 24 Apr 12:50:51 12:54:58 59° 259° (W) 12:59:03 437.445
UKube-1 24 Apr 12:53:43 12:55:38 13° 89° (E) 12:57:32 .
AO-85 24 Apr 12:57:12 13:00:46 26° 117° (ESE) 13:04:12 145.980
EO-79 24 Apr 13:12:02 13:13:37 12° 272° (W) 13:15:12 145.935-145.965
AO-7 24 Apr 13:15:44 13:21:46 23° 46° (NE) 13:27:47 .
DUCHIFAT 1 24 Apr 13:16:53 13:18:40 12° 271° (W) 13:20:28 145.980
DX 1 24 Apr 13:19:48 13:23:46 33° 97° (E) 13:27:41 434.975-435.025
PCSat 24 Apr 13:28:38 13:32:30 20° 253° (WSW) 13:36:21 145.827
ESTCUBE 1 24 Apr 13:31:52 13:35:37 26° 295° (WNW) 13:39:22 437.505/2401.250
Gurwin Techsat 1B 24 Apr 13:32:05 13:37:21 68° 73° (ENE) 13:42:40 435.225
ITAMSAT 1 24 Apr 13:34:53 13:37:41 15° 55° (NE) 13:40:31 435.822/435.867
50 SAT 24 Apr 13:36:00 13:39:31 83° 103° (ESE) 13:43:00 437.505
SPROUT 24 Apr 13:41:26 13:45:38 61° 287° (WNW) 13:49:48 437.525
YUBILEINY 24 Apr 13:45:52 13:51:12 17° 53° (NE) 13:56:29 435.215
Tancredo 1 24 Apr 13:48:27 13:51:26 41° 15° (NNE) 13:54:25 437.200
ISS 24 Apr 13:50:56 13:54:02 40° 13° (NNE) 13:57:08 437.550
Oscar 19 24 Apr 13:51:10 13:56:10 51° 260° (W) 14:01:15 437.125/150
VELOX 1 24 Apr 13:55:44 13:59:57 44° 291° (WNW) 14:04:09 145.980
